IXPE (49954 NORAD) Tracking and Keplerian Element Data
This shows tracking and keplerian element data for the satellite.
Feedback or suggestion? Click here.
Element | Value |
Catalog | 49954 |
Name | IXPE |
Epoch Orbit | 2422 |
Epoch Day | 140.32741183 |
Epoch Year | 2022 |
RAAN | 229.2758 |
Inclination | 0.2294 |
Eccentricity | 0.0011152 |
Argument of Perigee | 240.9658 |
Mean Anonmoly | 249.878 |
Mean Motion | 14.91282575 |
Decay Rate | 4.257E-05 |
L1 | 1 49954U 21121A 22140.32741183 .00004257 00000+0 34119-3 0 9994 |
L2 | 2 49954 0.2294 229.2758 0011152 240.9658 249.8780 14.91282575 24221 |
Live tracking and technical data element details for IXPE (NORAD 49954). IXPE can be tracked NOW for your location showing map with azimuth and elevation plus other details from your city location.
Track the satellite on the map from your city or location and see movement details for azimuth, elevation, latitude, longitude, range, height, and movement on the map or in text.
IsCatalogInMostPopularTable: catalog: 49954, numindb: 24
Update: records affected: 1
GetName: 49954 IXPE
Hit Count: updated at: Mon, 23 May 2022 20:49:59 GMT